Pottstown, PA

10:45 PM EDT on May 26, 2017 (GMT -0400)
Pottstown Limerick

Weather History for KPTW - January, 2013

Change the Weather History Date:

Tuesday, January 8, 2013

  Actual Average (KRDG) Record (KRDG)
Temperature  
Mean Temperature 34 °F -  
Max Temperature 46 °F 36 °F 69 °F (1998)
Min Temperature 23 °F 23 °F 2 °F (1942)
Degree Days  
Heating Degree Days 30    
Moisture  
Dew Point 26 °F    
Average Humidity 76    
Maximum Humidity 92    
Minimum Humidity 52    
Precipitation  
Precipitation 0.00 in - - ()
Sea Level Pressure  
Sea Level Pressure 30.39 in    
Wind  
Wind Speed 1 mph (SW)    
Max Wind Speed 7 mph    
Max Gust Speed -    
Visibility 8 miles    
Events      
Averages and records for this station are not official NWS values.
T = Trace of Precipitation, MM = Missing Value Source: NWS Daily Summary

Daily Weather History Graph

Daily Weather History Graph

Search for Another Location

Airport or City:

Trip Planner

Search our weather history database for the weather conditions in past years. The results will help you decide how hot, cold, wet, or windy it might be!

Date:

Astronomy

Jan. 08, 2013 Rise Set
Actual Time 7:24 AM EST 4:53 PM EST
Civil Twilight 6:54 AM EST 5:23 PM EST
Nautical Twilight 6:20 AM EST 5:57 PM EST
Astronomical Twilight 5:47 AM EST 6:30 PM EST
Moon 3:55 AM EST (1/8) 1:53 PM EST (1/8)
Length of Visible Light 10h 29m
Length of Day
9h 28m
Waning Crescent, 14% of the Moon is Illuminated
Jan 8
Waning Crescent
Jan 11
New
Jan 18
First Quarter
Jan 26
Full
Feb 3
Last Quarter

Hourly Weather History & Observations

Time (EST) Temp. Windchill Dew Point Humidity Pressure Visibility Wind Dir Wind Speed Gust Speed Precip Events Conditions
12:54 AM 26.1 °F - 21.9 °F 84% 30.40 in 8.0 mi Calm Calm - N/A   Clear
1:54 AM 24.1 °F - 21.0 °F 88% 30.39 in - Calm Calm - N/A   Unknown
2:54 AM 23.0 °F - 21.0 °F 92% 30.38 in 6.0 mi Calm Calm - N/A   Clear
3:54 AM 28.0 °F - 24.1 °F 85% 30.38 in 8.0 mi Calm Calm - N/A   Clear
4:54 AM 26.1 °F - 23.0 °F 88% 30.39 in 6.0 mi Calm Calm - N/A   Mist
5:54 AM 25.0 °F - 21.0 °F 85% 30.40 in 5.0 mi Calm Calm - N/A   Clear
6:54 AM 25.0 °F - 21.0 °F 85% 30.41 in 9.0 mi Calm Calm - N/A   Clear
7:54 AM 30.0 °F 25.2 °F 24.1 °F 79% 30.42 in 10.0 mi SSW 4.6 mph - N/A   Clear
8:54 AM 35.1 °F - 28.0 °F 76% 30.42 in 10.0 mi Calm Calm - N/A   Clear
9:54 AM 39.0 °F 35.7 °F 30.0 °F 70% 30.42 in 10.0 mi SW 4.6 mph - N/A   Clear
10:54 AM 43.0 °F 41.3 °F 30.0 °F 60% 30.39 in 10.0 mi SW 3.5 mph - N/A   Clear
11:54 AM 45.0 °F 41.8 °F 30.0 °F 56% 30.39 in 10.0 mi SW 5.8 mph - N/A   Clear
12:54 PM 46.0 °F 42.5 °F 30.0 °F 54% 30.37 in 10.0 mi West 6.9 mph - N/A   Clear
1:54 PM 46.9 °F - 30.0 °F 52% 30.37 in 10.0 mi West 4.6 mph - N/A   Clear
2:54 PM 46.9 °F - 30.0 °F 52% 30.38 in 10.0 mi WSW 3.5 mph - N/A   Clear
3:54 PM 46.0 °F 43.1 °F 30.0 °F 54% 30.39 in 10.0 mi SW 5.8 mph - N/A   Clear
4:54 PM 44.1 °F 41.5 °F 30.0 °F 58% 30.38 in 10.0 mi SW 4.6 mph - N/A   Clear
5:54 PM 36.0 °F - 28.9 °F 76% 30.40 in 10.0 mi Calm Calm - N/A   Clear
6:54 PM 33.1 °F - 28.0 °F 82% 30.39 in 10.0 mi Calm Calm - N/A   Clear
7:54 PM 30.9 °F - 27.0 °F 85% 30.39 in 10.0 mi Calm Calm - N/A   Clear
8:54 PM 30.0 °F - 27.0 °F 88% 30.39 in 9.0 mi Calm Calm - N/A   Clear
9:54 PM 30.0 °F - 26.1 °F 85% 30.40 in 6.0 mi Calm Calm - N/A   Clear
10:54 PM 28.0 °F - 26.1 °F 92% 30.40 in 5.0 mi North - - N/A   Mist
11:54 PM 27.0 °F - 24.1 °F 89% 30.40 in 4.0 mi Calm Calm - N/A   Clear